Regional Weather Roundup
Issued by NWS Burlington, VT

Home | Current Version | Previous Version | Text Only | Print | Product List | Glossary On
Versions: 1 2 3 4 5 6 7 8 9 10 11 12 13 14 15 16 17 18 19 20 21 22 23 24 25 26 27 28 29 30 31 32 33 34 35 36 37 38 39 40 41 42 43 44 45 46 47 48 49 50
000
ASUS41 KBTV 011230
RWRBTV
VERMONT REGIONAL WEATHER ROUNDUP
NATIONAL WEATHER SERVICE BURLINGTON VT
800 AM EDT SUN MAY 01 2016

NOTE: "FAIR" INDICATES FEW OR NO CLOUDS BELOW 12,000 FEET WITH NO
SIGNIFICANT WEATHER AND/OR OBSTRUCTIONS TO VISIBILITY.

* THESE REPORTS ARE NOT UNDER NWS QUALITY CONTROL AND/OR DO NOT
  REPORT WEATHER SUCH AS PRECIPITATION AND FOG.

VTZ001>019-011300-
_____VERMONT_____


CITY           SKY/WX    TMP DP  RH WIND       PRES   REMARKS
BURLINGTON     CLOUDY    47  27  45 CALM      30.17S
6HR MIN TEMP:  43; 6HR MAX TEMP:  47;

MONTPELIER     CLOUDY    41  28  60 CALM      30.22S
6HR MIN TEMP:  38; 6HR MAX TEMP:  41;

MORRISVILLE    FAIR      40  30  67 CALM      30.19F
6HR MIN TEMP:  33; 6HR MAX TEMP:  40;

ST. JOHNSBURY*   N/A     40  26  57 MISG      30.18F
6HR MIN TEMP:  36; 6HR MAX TEMP:  40;

LYNDONVILLE*   PTSUNNY   40  30  65 CALM      30.19F
6HR MIN TEMP:  35; 6HR MAX TEMP:  40;

MIDDLEBURY*    DRIZZLE   46  33  61 CALM      30.19R
6HR MIN TEMP:  41; 6HR MAX TEMP:  46;

RUTLAND*       CLOUDY    46  34  61 W3        30.18F
6HR MIN TEMP:  43; 6HR MAX TEMP:  46;

SPRINGFIELD    CLOUDY    46  35  65 CALM      30.21S
6HR MIN TEMP:  41; 6HR MAX TEMP:  46; 6HR PCP: TRACE;

HIGHGATE*      CLOUDY    47  27  46 CALM      30.16F
6HR MIN TEMP:  36; 6HR MAX TEMP:  44;

NEWPORT*       FAIR      40  31  70 CALM      30.18F
6HR MIN TEMP:  31; 6HR MAX TEMP:  37;

BENNINGTON     CLOUDY    50  41  71 CALM      30.18R
6HR MIN TEMP:  46; 6HR MAX TEMP:  50;

GALLUP MILLS*    N/A     43 N/A N/A MISG        N/A
UNION VILLAGE*   N/A     45 N/A N/A MISG        N/A
MT. MANSFIELD*   N/A     43 N/A N/A W9          N/A

_____LAKE CHAMPLAIN_____


CITY           SKY/WX    TMP DP  RH WIND       PRES   REMARKS
COLCHESTER RF*   N/A     43  30  61 W3          N/A
DIAMOND ISL*     N/A     45  34  65 S7          N/A

$$

NYZ007-026>031-035-052-083-087-011300-
_____NORTHERN NEW YORK_____


CITY           SKY/WX    TMP DP  RH WIND       PRES   REMARKS
PLATTSBURGH    CLOUDY    45  25  45 CALM      30.16F
6HR MIN TEMP:  39; 6HR MAX TEMP:  45;

SARANAC LAKE   LGT RAIN  40  29  64 SW5       30.13R
6HR MIN TEMP:  38; 6HR MAX TEMP:  44; 6HR PCP: TRACE;

MASSENA        CLOUDY    48  22  35 E10       30.16S
6HR MIN TEMP:  44; 6HR MAX TEMP:  48;

OGDENSBURG*    DRIZZLE   45  36  70 E3        30.12F
STARK FALLS*     N/A     48 N/A N/A SE12        N/A
WATERTOWN      LGT RAIN  49  47  93 E6        30.09F FOG
6HR MIN TEMP:  48; 6HR MAX TEMP:  50; 6HR PCP:  0.07;

FT DRUM        LGT RAIN  47  45  91 SE9       30.09F
6HR MIN TEMP:  47; 6HR MAX TEMP:  51; 6HR PCP:  0.05;

ALBANY         LGT RAIN  49  37  63 S6        30.19R
6HR MIN TEMP:  49; 6HR MAX TEMP:  53; 6HR PCP: TRACE;

GLENS FALLS    LGT RAIN  47  34  60 CALM      30.19S
6HR MIN TEMP:  44; 6HR MAX TEMP:  47; 6HR PCP: TRACE;


$$
NHZ002-005-011-011300-
_____NEW HAMPSHIRE_____


CITY           SKY/WX    TMP DP  RH WIND       PRES   REMARKS
LEBANON        CLOUDY    47  34  60 CALM      30.21R
6HR MIN TEMP:  42; 6HR MAX TEMP:  47;

KEENE          CLOUDY    46  36  66 SW3       30.23R
6HR MIN TEMP:  45; 6HR MAX TEMP:  46;

MT WASHINGTON  CLOUDY    32  23  69 SW13        N/A  WCI  22
6HR MIN TEMP:  30; 6HR MAX TEMP:  32;

PLYMOUTH       FAIR      44  35  72 CALM      30.22S
6HR MIN TEMP:  37; 6HR MAX TEMP:  42;

WHITEFIELD     CLOUDY    39  32  76 CALM      30.18F
6HR MIN TEMP:  31; 6HR MAX TEMP:  39;


$$

_____REGIONAL QUEBEC LOCATIONS_____


CITY           SKY/WX    TMP DP  RH WIND       PRES   REMARKS
MONTREAL       CLOUDY    45  23  42 NE13      30.17F
QUEBEC CITY    MOSUNNY   43  23  45 E5        30.23F
SHERBROOKE     SUNNY     36  27  69 E6        30.18F WCI  31

_____REGIONAL ONTARIO LOCATIONS_____


CITY           SKY/WX    TMP DP  RH WIND       PRES   REMARKS
OTTAWA         PTSUNNY   46  19  34 NE14      30.14F

______KEY______
VSB  - VISIBILITY IN MILES
WCI  - WIND CHILL INDEX
HX   - HEAT INDEX
$$
NNNN



USA.gov is the U.S. government's official web portal to all federal, state and local government web resources and services.